Regional Weather Roundup
Issued by NWS Newport/Morehead, NC

Current Version | Previous Version | Text Only | Print | Product List | Glossary On
Versions: 1 2 3 4 5 6 7 8 9 10 11 12 13 14 15 16 17 18 19 20 21 22 23 24 25 26 27 28 29 30 31 32 33 34 35 36 37 38 39 40 41 42 43 44 45 46 47 48 49 50
000
ASUS42 KMHX 272325
RWRMHX
WEATHER ROUNDUP FOR EASTERN NORTH CAROLINA
NATIONAL WEATHER SERVICE NEWPORT/MOREHEAD CITY NC
700 PM EDT SAT MAY 27 2017

NOTE: "FAIR" INDICATES FEW OR NO CLOUDS BELOW 12,000 FEET
WITH NO SIGNIFICANT WEATHER AND/OR OBSTRUCTIONS TO VISIBILITY

NCZ015>017-031-032-045>047-102-103-280000-
NORTH COAST

CITY           SKY/WX    TMP DP  RH WIND       PRES   REMARKS
EDENTON        SUNNY     85  65  51 CALM      29.85S
ELIZABETH CITY SUNNY     83  67  58 S6        29.84F
KITTY HAWK     PTCLDY    81  66  60 CALM      29.85S
MANTEO         SUNNY     80  69  70 SW14      29.86S

$$

NCZ045>047-081-094-103-104-280000-
CENTRAL COAST

CITY           SKY/WX    TMP DP  RH WIND       PRES   REMARKS
FRISCO         MOSUNNY   78  69  73 SW10G18   29.89F

$$

NCZ095-097-098-100-101-280000-
SOUTHERN COAST

CITY           SKY/WX    TMP DP  RH WIND       PRES   REMARKS
BEAUFORT       MOSUNNY   78  73  84 S13       29.88F
CEDAR ISLAND   NOT AVBL
JACKSONVILLE   NOT AVBL
PINEY ISLAND   PTCLDY   N/A N/A N/A S14G23    29.87F
WILMINGTON     MOSUNNY   82  68  62 SW10      29.89R


$$

NCZ011>013-027>030-043-044-078>080-089-090>093-098-280000-
COASTAL PLAIN

CITY           SKY/WX    TMP DP  RH WIND       PRES   REMARKS
AHOSKIE        NOT AVBL
CLINTON        CLOUDY    87  69  54 S3        29.87S
ELIZABETHTOWN  MOSUNNY   87  65  48 W3        29.87S
GOLDSBORO      MOSUNNY   87  63  43 SW8       29.84S
GREENVILLE     SUNNY     84  64  51 SW6       29.87S
HAVELOCK       PTSUNNY   80  67  64 S10       29.87F
KENANSVILLE    CLOUDY    86  66  51 SW6       29.86F
KINSTON        SUNNY     84  64  51 CALM      29.86S
NEW BERN       SUNNY     83  70  64 S9        29.87F
RICHLANDS      SUNNY     86  68  54 SW7       29.87S
ROCKY MOUNT    CLOUDY    84  67  56 S7        29.84S
WASHINGTON     SUNNY     85  65  50 SW5       29.85R
WHITEVILLE     MOSUNNY   87  66  49 SW5       29.88S

$$

AMZ130-135-150-152-154-156-158-170-250-252-270-ANZ085-086-088-633-658-670-280000-
MARINE OBSERVATIONS

STATION/POSITION TIME  TEMP    WIND        PRES    WAVE   SWELL
                       AIR SEA DIR/SP/G            HT/PER HT/PER
                 (UTC) (F)     (DEG/KT/KT) (MB)    (FT/S) (FT/S)
CHESAPEAKE LIGHT NOT AVBL
64 E VA BEACH    2250   69 68  200/  8/  8 1011.7    3/ 7   2/ 7
DUCK             2300   77 64  130/  4/  5 1010.7
2 E DUCK         2300      66                N/A     2/ 8
OREGON INLET     2300   77 76  190/ 15/ 18 1011.2
13E OREGON INLT  2248      68                N/A     3/ 8   2/ 8
HATTERAS CG      2300   77 74  210/ 11/ 16 1012.0
DIAMOND BUOY     2250   78 77  220/ 17/ 21 1012.1    3/ 8   2/ 8
CAPE LOOKOUT     2300   77     200/ 12/ 16 1011.5
BEAUFORT LAB     2300   77 74  210/ 10/ 14 1011.0
30 SE NEW RVR IN 2308   77 77  220/ 17/ 21 1011.9
30 SE NEW RVR IN 2313      77                N/A     5/ 5
27 SE WRIGHTSVLE 2308   76 77  210/ 16/ 21 1011.6
5 SE WRIGHTSVLE  2308   76 75  220/ 12/ 17 1012.3
225 S CAPE HAT   2250   77 77  230/ 12/ 14 1016.1    3/ 7   2/ 7
41 SE CHARLESTON 2310   77 75  210/ 16/ 19 1013.0

$$




USA.gov is the U.S. government's official web portal to all federal, state and local government web resources and services.